Resolute CS, Nunavut

9:26 AM MDT on October 19, 2017 (GMT -0600)
Resolute CS

Weather History for CXRB - November, 2013

Change the Weather History Date:

Friday, November 8, 2013

  Actual Average (CYRB) Record (CYRB)
Temperature  
Mean Temperature -15 °F -  
Max Temperature -8 °F 0 °F 15 °F (2008)
Min Temperature -22 °F -7 °F -27 °F (1997)
Degree Days  
Heating Degree Days 80    
Moisture  
Dew Point -19 °F    
Average Humidity 78    
Maximum Humidity 83    
Minimum Humidity 63    
Precipitation  
Precipitation 0.00 in - - ()
Sea Level Pressure  
Sea Level Pressure 29.96 in    
Wind  
Wind Speed 1 mph ()    
Max Wind Speed 2 mph    
Max Gust Speed -    
Averages and records for this station are not official NWS values.
T = Trace of Precipitation, MM = Missing Value Source: Averaged Metar Reports

Daily Weather History Graph

Daily Weather History Graph

Search for Another Location

Airport or City:

Trip Planner

Search our weather history database for the weather conditions in past years. The results will help you decide how hot, cold, wet, or windy it might be!

Date:

Astronomy

Nov. 08, 2013 Rise Set
Actual Time 10:31 AM MST 11:36 AM MST
Civil Twilight 7:56 AM MST 2:08 PM MST
Nautical Twilight 6:07 AM MST 3:57 PM MST
Astronomical Twilight 4:34 AM MST 5:30 PM MST
Moon 3:57 PM MST (11/8) 4:39 PM MST (11/8)
Length of Visible Light 6h 11m
Length of Day
1h 04m
Waxing Crescent, 34% of the Moon is Illuminated
Nov 8
Waxing Crescent
Nov 9
First Quarter
Nov 17
Full
Nov 25
Last Quarter
Dec 2
New

Hourly Weather History & Observations

Time (MST) Temp. Dew Point Humidity Pressure Visibility Wind Dir Wind Speed Gust Speed Precip Events Conditions
12:00 AM -16.4 °F -21.3 °F 79% 29.93 in - North 1.2 mph - N/A   Unknown
1:00 AM -18.4 °F -23.4 °F 78% 29.93 in - North 1.2 mph - N/A   Unknown
2:00 AM -18.8 °F -23.8 °F 78% 29.94 in - North 1.2 mph - N/A   Unknown
3:00 AM -19.3 °F -24.3 °F 78% 29.95 in - North 1.2 mph - N/A   Unknown
4:00 AM -19.7 °F -24.9 °F 77% 29.96 in - North 1.2 mph - N/A   Unknown
5:00 AM -20 °F -25 °F 63% 29.96 in - North 2.3 mph - -  
5:00 AM -20.2 °F -25.4 °F 77% 29.96 in - North 2.3 mph - N/A   Unknown
6:00 AM -19.8 °F -25.1 °F 77% 29.98 in - North 2.3 mph - N/A   Unknown
7:00 AM -18.2 °F -23.3 °F 78% 29.98 in - North 1.2 mph - N/A   Unknown
8:00 AM -18.9 °F -24.0 °F 78% 29.99 in - North 1.2 mph - N/A   Unknown
9:00 AM -18.6 °F -23.6 °F 78% 29.98 in - North 1.2 mph - N/A   Unknown
10:00 AM -17.7 °F -22.7 °F 78% 29.99 in - North 1.2 mph - N/A   Unknown
11:00 AM -17 °F -22 °F 67% 29.99 in - North 1.2 mph - -  
11:00 AM -17.0 °F -21.8 °F 79% 29.99 in - North 1.2 mph - N/A   Unknown
12:00 PM -13.7 °F -18.2 °F 80% 29.99 in - NNW 1.2 mph - N/A   Unknown
1:00 PM -11.9 °F -16.2 °F 81% 29.98 in - NW 1.2 mph - N/A   Unknown
2:00 PM -11.9 °F -16.2 °F 81% 29.98 in - NNW 1.2 mph - N/A   Unknown
3:00 PM -11.9 °F -16.2 °F 81% 29.98 in - NNW 1.2 mph - N/A   Unknown
4:00 PM -9.6 °F -13.7 °F 82% 29.98 in - WNW 2.3 mph - N/A   Unknown
5:00 PM -9 °F -13 °F 72% 29.97 in - NW 2.3 mph - -  
5:00 PM -9.2 °F -13.2 °F 83% 29.97 in - NW 2.3 mph - N/A   Unknown
6:00 PM -9.0 °F -13.0 °F 83% 29.96 in - NW 2.3 mph - N/A   Unknown
7:00 PM -10.5 °F -14.6 °F 82% 29.96 in - NNW 2.3 mph - N/A   Unknown
8:00 PM -11.6 °F -15.9 °F 81% 29.96 in - NW 2.3 mph - N/A   Unknown
9:00 PM -12.8 °F -17.3 °F 80% 29.95 in - NNW 1.2 mph - N/A   Unknown
10:00 PM -12.1 °F -16.4 °F 81% 29.94 in - WNW 1.2 mph - N/A   Unknown
11:00 PM -9 °F -13 °F 71% 29.93 in - NW 2.3 mph - -  
11:00 PM -9.4 °F -13.4 °F 83% 29.93 in - NW 2.3 mph - N/A   Unknown